Kaneohe MCBH, HI

12:47 AM HST on May 28, 2017 (GMT -1000)
Kaneohe Bay Marine Corps Air Facility

Weather History for PHNG - October, 2013

Change the Weather History Date:

Tuesday, October 29, 2013

  Actual Average Record
Temperature  
Mean Temperature 78 °F -  
Max Temperature 82 °F 79 °F 89 °F (2015)
Min Temperature 73 °F 72 °F 46 °F (1999)
Cooling Degree Days 12    
Growing Degree Days 28 (Base 50)    
Moisture  
Dew Point 67 °F    
Average Humidity 72    
Maximum Humidity 83    
Minimum Humidity 56    
Precipitation  
Precipitation 0.00 in - - ()
Sea Level Pressure  
Sea Level Pressure 30.03 in    
Wind  
Wind Speed 5 mph (ENE)    
Max Wind Speed 9 mph    
Max Gust Speed -    
Visibility 9 miles    
Events      
Averages and records for this station are not official NWS values.
T = Trace of Precipitation, MM = Missing Value Source: NWS Daily Summary

Daily Weather History Graph

Daily Weather History Graph

Search for Another Location

Airport or City:

Trip Planner

Search our weather history database for the weather conditions in past years. The results will help you decide how hot, cold, wet, or windy it might be!

Date:

Astronomy

Oct. 29, 2013 Rise Set
Actual Time 6:32 AM HST 5:56 PM HST
Civil Twilight 6:10 AM HST 6:19 PM HST
Nautical Twilight 5:43 AM HST 6:45 PM HST
Astronomical Twilight 5:17 AM HST 7:11 PM HST
Moon 2:08 AM HST (10/29) 2:45 PM HST (10/29)
Length of Visible Light 12h 08m
Length of Day
11h 23m
Waning Crescent, 23% of the Moon is Illuminated
Oct 29
Waning Crescent
Nov 3
New
Nov 9
First Quarter
Nov 17
Full
Nov 25
Last Quarter

Hourly Weather History & Observations

Time (HST) Temp. Heat Index Dew Point Humidity Pressure Visibility Wind Dir Wind Speed Gust Speed Precip Events Conditions
12:12 AM 73.4 °F - 68.0 °F 83% 30.05 in 6.2 mi East 5.8 mph - N/A   Mostly Cloudy
12:27 AM 73.4 °F - 68.0 °F 83% 30.05 in 6.2 mi East 4.6 mph - N/A   Scattered Clouds
12:57 AM 73.4 °F - 68.0 °F 83% 30.03 in 10.0 mi East 3.5 mph - N/A   Scattered Clouds
1:57 AM 73.4 °F - 66.9 °F 80% 30.01 in 10.0 mi East 3.5 mph - N/A   Scattered Clouds
2:07 AM 73.4 °F - 66.2 °F 78% 30.02 in 6.2 mi East 5.8 mph - N/A   Mostly Cloudy
2:14 AM 73.4 °F - 66.2 °F 78% 30.02 in 6.2 mi East 4.6 mph - N/A   Partly Cloudy
2:57 AM 73.4 °F - 66.9 °F 80% 30.00 in 10.0 mi Variable 3.5 mph - N/A   Partly Cloudy
3:47 AM 73.4 °F - 66.2 °F 78% 30.01 in 6.2 mi Calm Calm - N/A   Mostly Cloudy
3:57 AM 73.4 °F - 66.9 °F 80% 30.00 in 10.0 mi East 3.5 mph - N/A   Scattered Clouds
4:57 AM 73.4 °F - 66.9 °F 80% 30.00 in 10.0 mi Calm Calm - N/A   Scattered Clouds
5:27 AM 73.4 °F - 66.2 °F 78% 30.02 in 6.2 mi Variable 5.8 mph - N/A   Mostly Cloudy
5:36 AM 73.4 °F - 66.2 °F 78% 30.02 in 6.2 mi ENE 5.8 mph - N/A   Scattered Clouds
5:57 AM 73.4 °F - 66.9 °F 80% 30.01 in 10.0 mi East 4.6 mph - N/A   Partly Cloudy
6:57 AM 75.2 °F - 66.9 °F 75% 30.02 in 9.0 mi Calm Calm - N/A   Scattered Clouds
7:57 AM 78.3 °F - 66.9 °F 68% 30.03 in 7.0 mi East 4.6 mph - N/A   Scattered Clouds
8:57 AM 78.3 °F - 66.9 °F 68% 30.04 in 10.0 mi East 8.1 mph - N/A   Partly Cloudy
9:57 AM 78.3 °F - 68.0 °F 71% 30.05 in 10.0 mi ENE 8.1 mph - N/A   Mostly Cloudy
10:57 AM 82.2 °F 85.1 °F 68.0 °F 62% 30.04 in 10.0 mi ENE 9.2 mph - N/A   Scattered Clouds
11:57 AM 82.2 °F 84.7 °F 66.9 °F 60% 30.02 in 10.0 mi ENE 8.1 mph - N/A   Mostly Cloudy
12:57 PM 82.2 °F 84.7 °F 66.9 °F 60% 30.00 in 7.0 mi ENE 9.2 mph - N/A   Scattered Clouds
1:57 PM 82.2 °F 84.4 °F 66.0 °F 58% 29.98 in 10.0 mi ENE 6.9 mph - N/A   Partly Cloudy
2:57 PM 82.2 °F 84.0 °F 64.9 °F 56% 29.98 in 10.0 mi ENE 9.2 mph - N/A   Scattered Clouds
3:57 PM 82.2 °F 84.7 °F 66.9 °F 60% 29.99 in 10.0 mi ENE 6.9 mph - N/A   Scattered Clouds
4:57 PM 82.2 °F 84.7 °F 66.9 °F 60% 30.00 in 10.0 mi ENE 6.9 mph - N/A   Partly Cloudy
5:57 PM 82.2 °F 84.7 °F 66.9 °F 60% 30.02 in 9.0 mi ENE 8.1 mph - N/A   Scattered Clouds
6:57 PM 76.6 °F - 66.0 °F 70% 30.04 in 10.0 mi East 8.1 mph - N/A   Clear
7:57 PM 76.5 °F - 66.0 °F 70% 30.06 in 10.0 mi East 5.8 mph - N/A   Scattered Clouds
8:57 PM 76.5 °F - 66.9 °F 72% 30.07 in 10.0 mi East 6.9 mph - N/A   Clear
9:57 PM 76.1 °F - 66.0 °F 71% 30.07 in 10.0 mi Variable 5.8 mph - N/A   Scattered Clouds
10:57 PM 76.1 °F - 66.0 °F 71% 30.07 in 10.0 mi East 5.8 mph - N/A   Scattered Clouds
11:57 PM 76.3 °F - 66.0 °F 70% 30.06 in 10.0 mi East 9.2 mph - N/A   Scattered Clouds